Weather History for Troy, AL

Change the Weather History Date:

Thursday, June 6, 2013

  Actual Average Record
Temperature  
Mean Temperature 77 °F 76 °F  
Max Temperature 84 °F 88 °F 99 °F (2011)
Min Temperature 69 °F 65 °F 51 °F (2006)
Cooling Degree Days 12 11  
Month to date cooling degree days 89 64  
Year to date cooling degree days 381 351  
Since 1 June cooling degree days 89 64  
Growing Degree Days 26 (Base 50)    
Moisture  
Dew Point 68 °F    
Average Humidity 74    
Maximum Humidity 90    
Minimum Humidity 58    
Precipitation  
Precipitation 0.04 in 0.15 in 0.92 in (2003)
Month to date precipitation 1.51 0.92  
Year to date precipitation 24.67 23.75  
Sea Level Pressure  
Sea Level Pressure 29.82 in    
Wind  
Wind Speed 3 mph (ENE)    
Max Wind Speed 12 mph    
Max Gust Speed 15 mph    
Visibility 9 miles    
Events Rain    
T = Trace of Precipitation, MM = Missing Value Source: NWS Daily Summary

Daily Weather History Graph

Daily Weather History Graph

Search for Another Location

Airport:

Trip Planner

Search our weather history database for the weather conditions in past years. The results will help you decide how hot, cold, wet, or windy it might be!

Date:

Astronomy

Jun. 06, 2013 Rise Set
Actual Time 5:38 AM CDT 7:47 PM CDT
Civil Twilight 5:10 AM CDT 8:15 PM CDT
Nautical Twilight 4:36 AM CDT 8:49 PM CDT
Astronomical Twilight 3:59 AM CDT 9:26 PM CDT
Moon 4:13 AM CDT (6/6) 6:13 PM CDT (6/6)
Length of Visible Light 15h 05m
Length of Day
14h 09m
Waning Crescent, 3% of the Moon is Illuminated
Jun 6
Waning Crescent
Jun 8
New
Jun 16
First Quarter
Jun 23
Full
Jun 29
Last Quarter

Hourly Weather History & Observations

Time (CDT) Temp. Heat Index Dew Point Humidity Pressure Visibility Wind Dir Wind Speed Gust Speed Precip Events Conditions
12:53 AM 73.9 °F - 68.0 °F 82% 29.89 in 10.0 mi South 6.9 mph - N/A   Mostly Cloudy
1:15 AM 73.4 °F - 66.2 °F 78% 29.91 in 7.0 mi South 9.2 mph - 0.01 in Rain Light Rain
1:43 AM 71.6 °F - 68.0 °F 88% 29.88 in 10.0 mi Calm Calm - 0.03 in   Overcast
1:53 AM 72.0 °F - 68.0 °F 87% 29.86 in 10.0 mi ENE 3.5 mph - 0.03 in   Overcast
2:32 AM 71.6 °F - 68.0 °F 88% 29.84 in 10.0 mi ENE 5.8 mph - 0.00 in   Overcast
2:46 AM 71.6 °F - 68.0 °F 88% 29.82 in 10.0 mi ENE 4.6 mph - 0.00 in   Overcast
2:53 AM 72.0 °F - 68.0 °F 87% 29.80 in 9.0 mi East 3.5 mph - 0.00 in   Overcast
3:05 AM 71.6 °F - 69.8 °F 94% 29.82 in 9.0 mi ESE 3.5 mph - N/A   Overcast
3:21 AM 71.6 °F - 69.8 °F 94% 29.80 in 7.0 mi ESE 5.8 mph - N/A   Overcast
3:38 AM 73.4 °F - 68.0 °F 83% 29.83 in 10.0 mi Calm Calm - N/A   Overcast
3:53 AM 72.0 °F - 68.0 °F 87% 29.82 in 10.0 mi WSW 3.5 mph - N/A   Overcast
4:29 AM 71.6 °F - 68.0 °F 88% 29.83 in 8.0 mi SE 4.6 mph - N/A   Partly Cloudy
4:53 AM 71.1 °F - 68.0 °F 90% 29.84 in 8.0 mi NW 3.5 mph - N/A   Scattered Clouds
5:53 AM 72.0 °F - 68.0 °F 87% 29.84 in 9.0 mi NNW 5.8 mph - N/A   Mostly Cloudy
6:53 AM 73.0 °F - 69.1 °F 87% 29.83 in 9.0 mi Calm Calm - N/A   Mostly Cloudy
7:14 AM 73.4 °F - 69.8 °F 88% 29.84 in 5.0 mi SE 5.8 mph - N/A   Overcast
7:53 AM 73.9 °F - 69.1 °F 85% 29.84 in 10.0 mi North 3.5 mph - N/A   Overcast
8:03 AM 75.2 °F - 69.8 °F 83% 29.85 in 10.0 mi NNE 4.6 mph - N/A   Overcast
8:21 AM 77.0 °F - 69.8 °F 78% 29.86 in 10.0 mi Variable 3.5 mph - N/A   Overcast
8:53 AM 78.1 °F - 69.1 °F 74% 29.85 in 10.0 mi ENE 3.5 mph - N/A   Mostly Cloudy
9:02 AM 78.8 °F - 69.8 °F 74% 29.86 in 10.0 mi ENE 5.8 mph - N/A   Mostly Cloudy
9:53 AM 78.1 °F - 69.1 °F 74% 29.86 in 10.0 mi ENE 4.6 mph - N/A   Overcast
10:53 AM 78.1 °F - 68.0 °F 71% 29.86 in 10.0 mi NNE 8.1 mph - 0.00 in   Overcast
11:53 AM 81.0 °F 83.8 °F 68.0 °F 65% 29.82 in 10.0 mi Variable 5.8 mph - N/A   Partly Cloudy
12:31 PM 78.8 °F - 68.0 °F 69% 29.83 in 10.0 mi East 8.1 mph - N/A   Overcast
12:39 PM 78.8 °F - 68.0 °F 69% 29.83 in 10.0 mi East 8.1 mph - N/A   Overcast
12:53 PM 78.1 °F - 68.0 °F 71% 29.82 in 10.0 mi ENE 8.1 mph - N/A   Overcast
1:53 PM 82.0 °F 84.9 °F 68.0 °F 62% 29.79 in 10.0 mi Variable 4.6 mph - 0.00 in   Partly Cloudy
2:53 PM 79.0 °F - 69.1 °F 72% 29.77 in 5.0 mi NE 6.9 mph - 0.01 in Rain Light Rain
3:53 PM 81.0 °F 83.8 °F 68.0 °F 65% 29.75 in 10.0 mi East 4.6 mph - 0.00 in   Partly Cloudy
4:53 PM 82.9 °F 85.4 °F 66.9 °F 58% 29.73 in 10.0 mi NE 5.8 mph - N/A   Clear
5:53 PM 80.1 °F 82.7 °F 68.0 °F 67% 29.73 in 10.0 mi ESE 3.5 mph - N/A   Clear
6:53 PM 79.0 °F - 69.1 °F 72% 29.73 in 10.0 mi ENE 3.5 mph - N/A   Clear
7:53 PM 75.9 °F - 69.1 °F 79% 29.74 in 10.0 mi Calm Calm - N/A   Clear
8:53 PM 73.0 °F - 69.1 °F 87% 29.75 in 10.0 mi Calm Calm - N/A   Clear
9:53 PM 73.0 °F - 69.1 °F 87% 29.77 in 10.0 mi Calm Calm - N/A   Clear
10:53 PM 71.1 °F - 68.0 °F 90% 29.77 in 10.0 mi Calm Calm - N/A   Clear
11:53 PM 71.1 °F - 66.9 °F 87% 29.75 in 10.0 mi Calm Calm - N/A   Clear